Regional Weather Roundup
Issued by NWS

Home | Current Version | Previous Version | Text Only | Print | Product List | Glossary Off
Versions: 1 2 3 4 5 6 7 8 9 10 11 12 13 14 15 16 17 18 19 20 21 22 23 24 25 26 27 28 29 30 31 32 33 34 35 36 37 38 39 40 41 42 43 44 45 46 47 48 49 50

000
ASUS43 KIND 052109
RWRIN

WEATHER ROUNDUP FOR INDIANA
NATIONAL WEATHER SERVICE INDIANAPOLIS IN
400 PM EST THU MAR 05 2015

NOTE: "FAIR" INDICATES FEW OR NO CLOUDS BELOW 12,000 FEET WITH NO
SIGNIFICANT WEATHER AND/OR OBSTRUCTIONS TO VISIBILITY.

* - STATION DOES NOT REPORT WEATHER SUCH AS PRECIPITATION OR FOG.

+ - STATION NOT QUALITY CONTROLLED BY THE NATIONAL WEATHER SERVICE.
    USE DATA WITH CAUTION...ESPECIALLY DEWPOINT AND RELATIVE
    HUMIDITY OBSERVATIONS.

INZ001>003-010>013-019-020-052200-
NORTHWEST INDIANA

CITY           SKY/WX    TMP DP  RH WIND       PRES   REMARKS
KNOX *+          N/A     19 -11  25 NW10      30.45R WCI   8
LA PORTE +     SUNNY     20   4  49 NW9       30.46R WCI  10
MICHIGAN CITY+ SUNNY     18  -2  41 NW12      30.48R WCI   5
MONTICELLO +   PTSUNNY   19   7  59 W10       30.47R WCI   7
RENSSELAER +   SUNNY     19   5  53 W10       30.48R WCI   8
VALPARAISO     SUNNY     19  -2  39 N8        30.45R WCI   9

$$

LMZ046-743>745-052200-
SOUTHERN LAKE MICHIGAN

STATION/POSITION TIME  TEMP WIND        PRES
                       AIR  DIR/SP/G
                 (UTC) (F)  (DEG/KT/KT) (MB)
MICHIGAN CITY    2100   18  280/ 11/ 15   N/A

$$

INZ004-005-014>016-021>024-052200-
NORTH CENTRAL INDIANA

CITY           SKY/WX    TMP DP  RH WIND       PRES   REMARKS
ELKHART        CLOUDY    19   7  58 NW10G18   30.43R WCI   8
GOSHEN         LGT SNOW  18   9  68 NW15      30.42R WCI   4
LOGANSPORT +   FLURRIES  19   9  63 W9        30.47R WCI   9
PERU/GRISSOM   PTSUNNY   20   7  57 W14       30.43R WCI   6
ROCHESTER +    MOSUNNY   23   9  54 NW12G17   30.45R WCI  12
SOUTH BEND     MOSUNNY   19   6  57 NW15      30.45R WCI   5
WARSAW +       PTSUNNY   21  10  63 NW15      30.42R WCI   8

$$

INZ006>009-017-018-025>027-052200-
NORTHEAST INDIANA

CITY           SKY/WX    TMP DP  RH WIND       PRES   REMARKS
ANGOLA *+      CLOUDY    18   5  57 N6        30.40R WCI   9
AUBURN +       PTSUNNY   21   5  49 NW8       30.42R WCI  12
FORT WAYNE     PTSUNNY   19   5  54 NW10      30.42R WCI   7
HUNTINGTON +   PTSUNNY   20   4  51 W12G17    30.42R WCI   8

$$

INZ028-029-035-036-043>045-051>053-052200-
WEST CENTRAL INDIANA

CITY           SKY/WX    TMP DP  RH WIND       PRES   REMARKS
CRAWFORDSVL +  PTSUNNY   17   1  49 NW13      30.48R WCI   3
GREENCASTLE +  CLOUDY    19   1  45 N10G16    30.46R WCI   8
LAFAYETTE      MOSUNNY   17   5  59 NW8       30.49R WCI   7
TERRE HAUTE    SUNNY     18   5  57 N13       30.51R WCI   5

$$

INZ030>032-037>040-046>048-054>057-064-065-052200-
CENTRAL INDIANA

CITY           SKY/WX    TMP DP  RH WIND       PRES   REMARKS
CP ATTERBURY + MOSUNNY   25   9  50 NW12      30.45R WCI  14
COLUMBUS       CLOUDY    25   7  46 N13       30.44R WCI  13
FISHERS *+     CLOUDY    21  10  63 NW8       30.45  WCI  12
FRANKFORT +    MOSUNNY   22  11  63 W12       30.47R WCI  11
GREENWOOD *+   PTSUNNY   21   1  42 NW9       30.45R WCI  11
INDIANAPOLIS   PTSUNNY   20   5  52 NW10      30.44R WCI   9
-EAGLE CREEK   CLOUDY    20   6  55 NW13      30.45R WCI   7
KOKOMO *+      MOSUNNY   19  10  68 NW8       30.45R WCI   9
MARION +       PTSUNNY   20   7  56 NW10      30.44R WCI   8
MT COMFORT *+  MOSUNNY   23   0  36 NW12      30.44R WCI  12
SHELBYVILLE    CLOUDY    23   7  50 N9        30.44R WCI  13
ZIONSVILLE +   PTSUNNY   20   9  63 W9        30.45R WCI   9

$$

INZ033-034-041-042-049-050-058-059-052200-
EAST CENTRAL INDIANA

CITY           SKY/WX    TMP DP  RH WIND       PRES   REMARKS
MUNCIE         MOSUNNY   19   6  57 NW12      30.42R WCI   7

$$

INZ060-061-067>069-081>083-085>088-052200-
SOUTHWEST INDIANA

CITY           SKY/WX    TMP DP  RH WIND       PRES   REMARKS
EVANSVILLE     SUNNY     23   4  44 N14G23    30.52R WCI  11
HUNTINGBURG *+ SUNNY     21   5  49 N16       30.50R WCI   7
WASHINGTON +   SUNNY     21   2  44 NW15      30.50R WCI   7

$$

INZ062-063-066-070>080-084-089>092-052200-
SOUTH CENTRAL AND SOUTHEAST INDIANA

CITY           SKY/WX    TMP DP  RH WIND       PRES   REMARKS
BEDFORD +      MOSUNNY   27   7  43 NW6       30.45R WCI  20
BLOOMINGTON    CLOUDY    25   6  44 VRB5      30.44R WCI  19
NORTH VERNON + SUNNY     25   9  50 N10       30.43R WCI  15
SEYMOUR +      CLOUDY    27  10  50 NE8       30.45R WCI  18

$$




USA.gov is the U.S. government's official web portal to all federal, state and local government web resources and services.